Weather History for Aurora, OR

Change the Weather History Date:

Monday, February 18, 2013

  Actual Average Record
Temperature  
Mean Temperature 40 °F -  
Max Temperature 47 °F - 63 °F (2008)
Min Temperature 33 °F - 26 °F (2006)
Degree Days  
Heating Degree Days 25    
Month to date heating degree days 381  
Since 1 July heating degree days 2911  
Cooling Degree Days 0    
Month to date cooling degree days 0  
Year to date cooling degree days 0  
Moisture  
Dew Point 34 °F    
Average Humidity 80    
Maximum Humidity 100    
Minimum Humidity 60    
Precipitation  
Precipitation 0.01 in - 0.96 in (1999)
Month to date precipitation 0.62  
Year to date precipitation 2.63  
Sea Level Pressure  
Sea Level Pressure 29.97 in    
Wind  
Wind Speed 4 mph (South)    
Max Wind Speed 13 mph    
Max Gust Speed 17 mph    
Visibility 10 miles    
Events Rain    
T = Trace of Precipitation, MM = Missing Value Source: NWS Daily Summary

Daily Weather History Graph

Daily Weather History Graph

Search for Another Location

Airport:

Trip Planner

Search our weather history database for the weather conditions in past years. The results will help you decide how hot, cold, wet, or windy it might be!

Date:

Astronomy

Feb. 18, 2013 Rise Set
Actual Time 7:07 AM PST 5:43 PM PST
Civil Twilight 6:37 AM PST 6:13 PM PST
Nautical Twilight 6:02 AM PST 6:47 PM PST
Astronomical Twilight 5:28 AM PST 7:22 PM PST
Moon 11:25 AM PST (2/18) 1:59 AM PST (2/18)
Length of Visible Light 11h 36m
Length of Day
10h 36m
First Quarter, 59% of the Moon is Illuminated
Feb 18
First Quarter
Feb 25
Full
Mar 4
Last Quarter
Mar 11
New
Mar 19
First Quarter

Hourly Weather History & Observations

Time (PST) Temp. Windchill Dew Point Humidity Pressure Visibility Wind Dir Wind Speed Gust Speed Precip Events Conditions
12:53 AM 37.0 °F 34.5 °F 34.0 °F 89% 30.10 in 10.0 mi NE 3.5 mph - N/A   Clear
1:53 AM 36.0 °F - 34.0 °F 93% 30.09 in 10.0 mi Calm Calm - N/A   Mostly Cloudy
2:53 AM 36.0 °F - 34.0 °F 93% 30.07 in 10.0 mi Calm Calm - N/A   Partly Cloudy
3:53 AM 35.1 °F - 34.0 °F 96% 30.05 in 10.0 mi Calm Calm - N/A   Clear
4:53 AM 35.1 °F 32.2 °F 34.0 °F 96% 30.03 in 10.0 mi East 3.5 mph - N/A   Clear
5:53 AM 34.0 °F - 33.1 °F 96% 30.04 in 10.0 mi Calm Calm - N/A   Clear
6:53 AM 33.1 °F - 33.1 °F 100% 30.04 in 10.0 mi Calm Calm - N/A   Clear
7:01 AM 33.8 °F - 33.8 °F 100% 30.04 in 10.0 mi Calm Calm - N/A   Scattered Clouds
7:10 AM 33.8 °F 30.8 °F 33.8 °F 100% 30.04 in 10.0 mi South 3.5 mph - N/A   Mostly Cloudy
7:31 AM 33.8 °F 29.6 °F 33.8 °F 100% 30.04 in 10.0 mi SSE 4.6 mph - N/A   Scattered Clouds
7:53 AM 34.0 °F - 33.1 °F 96% 30.04 in 10.0 mi Calm Calm - N/A   Clear
8:53 AM 36.0 °F 33.3 °F 34.0 °F 93% 30.05 in 10.0 mi South 3.5 mph - N/A   Mostly Cloudy
9:53 AM 39.0 °F 34.8 °F 35.1 °F 86% 30.04 in 10.0 mi SSW 5.8 mph - N/A   Mostly Cloudy
10:53 AM 41.0 °F 36.4 °F 35.1 °F 79% 30.02 in 10.0 mi SSW 6.9 mph - N/A   Overcast
11:53 AM 42.1 °F 37.7 °F 36.0 °F 79% 30.01 in 10.0 mi SW 6.9 mph - N/A   Overcast
12:53 PM 44.1 °F 38.6 °F 35.1 °F 71% 29.99 in 10.0 mi SW 10.4 mph 17.3 mph N/A   Overcast
1:53 PM 45.0 °F 41.8 °F 35.1 °F 68% 29.96 in 10.0 mi Variable 5.8 mph - N/A   Overcast
2:53 PM 46.0 °F 41.4 °F 34.0 °F 63% 29.94 in 10.0 mi South 9.2 mph - N/A   Overcast
3:53 PM 46.0 °F 42.5 °F 34.0 °F 63% 29.92 in 10.0 mi SSW 6.9 mph - N/A   Overcast
4:53 PM 45.0 °F 40.6 °F 33.1 °F 63% 29.90 in 10.0 mi SSW 8.1 mph - N/A   Overcast
5:53 PM 45.0 °F 40.6 °F 35.1 °F 68% 29.88 in 10.0 mi South 8.1 mph - 0.00 in   Overcast
6:53 PM 42.1 °F 38.4 °F 35.1 °F 76% 29.85 in 10.0 mi South 5.8 mph - N/A   Mostly Cloudy
7:53 PM 43.0 °F 41.3 °F 34.0 °F 71% 29.83 in 10.0 mi SSE 3.5 mph - N/A   Overcast
8:53 PM 42.1 °F - 35.1 °F 76% 29.82 in 10.0 mi Calm Calm - N/A   Overcast
9:53 PM 42.1 °F - 34.0 °F 73% 29.80 in 10.0 mi Calm Calm - N/A   Overcast
10:53 PM 41.0 °F - 34.0 °F 76% 29.78 in 10.0 mi Calm Calm - N/A   Mostly Cloudy
11:53 PM 42.1 °F 38.4 °F 35.1 °F 76% 29.77 in 10.0 mi SSW 5.8 mph - 0.00 in Rain Light Rain